This demonstration page uses our WeatherBlox Daily Observations layout. Learn more.

Left ArrowRight Arrow

38.20091, -84.87328

Hourly Observations for August 2, 2016

Temp ( °F °C ) Dew Point ( °F °C ) Humidity (%) Winds ( mph kmh ) Pressure ( in mb ) Visibility ( mi km ) Precip ( " mm )
12:53 am 00:53 Partly Cloudy 73 22.8 70 21.1 90 90 Calm 30.02 1017 10 16 0.00 0.00
1:53 am 01:53 Cloudy 73 22.8 70 21.1 90 90 SW 3 6 30.02 1017 10 16 0.00 0.00
2:33 am 02:33 Cloudy 73 22.8 70 21.1 90 90 Calm 30.03 1017 10 16 0.00 0.00
2:43 am 02:43 Cloudy 73 22.8 70 21.1 90 90 NNW 3 6 30.03 1017 9 14 0.00 0.00
2:53 am 02:53 Cloudy 73 22.8 70 21.1 90 90 Calm 30.03 1017 10 16 0.00 0.00
3:19 am 03:19 Cloudy 73 22.8 70 21.1 90 90 Calm 30.03 1017 10 16 0.00 0.00
3:33 am 03:33 Cloudy 73 22.8 70 21.1 90 90 Calm 30.03 1017 10 16 0.00 0.00
3:53 am 03:53 Cloudy 73 22.8 70 21.1 90 90 WNW 3 6 30.03 1017 10 16 0.00 0.00
4:40 am 04:40 Cloudy 73 22.8 70 21.1 90 90 Calm 30.00 1016 9 14 0.00 0.00
4:53 am 04:53 Cloudy with Mist and Fog 73 22.8 70 21.1 90 90 Calm 30.01 1016 4 6 0.00 0.00
5:37 am 05:37 Cloudy with Mist and Fog 73 22.8 70 21.1 90 90 Calm 30.00 1016 2 3 0.00 0.00
5:50 am 05:50 Cloudy with Mist and Fog 73 23 70 21 89 89 Calm 30.00 1016 4 6 0.00 0.00
5:53 am 05:53 Cloudy with Mist and Fog 73 22.8 70 21.1 90 90 Calm 30.02 1017 4 6 0.00 0.00
6:15 am 06:15 Cloudy with Mist and Fog 73 22.8 70 21.1 90 90 Calm 30.00 1016 5 8 0.00 0.00
6:53 am 06:53 Cloudy with Mist and Fog 73 22.8 70 21.1 90 90 Calm 30.02 1017 5 8 0.00 0.00
7:51 am 07:51 Cloudy with Mist and Fog 73 23 70 21 89 89 Calm 30.03 1017 4 6 0.00 0.00
7:53 am 07:53 Cloudy with Mist and Fog 73 22.8 70 21.1 90 90 Calm 30.03 1017 4 6 0.00 0.00
8:03 am 08:03 Cloudy with Mist and Fog 74 23.3 71 21.7 91 91 NNW 3 6 30.03 1017 4 6 0.00 0.00
8:53 am 08:53 Cloudy with Mist and Fog 75 23.9 71 21.7 88 88 VRB 3 6 30.05 1018 6 10 0.00 0.00
9:22 am 09:22 Cloudy 75 23.9 71 21.7 88 88 Calm 30.03 1017 7 11 0.00 0.00
9:51 am 09:51 Cloudy 77 25 70 21 79 79 VRB 3 6 30.03 1017 10 16 0.00 0.00
9:53 am 09:53 Cloudy 77 25 70 21.1 79 79 Calm 30.05 1018 10 16 0.00 0.00
10:07 am 10:07 Cloudy 77 25 70 21.1 79 79 Calm 30.06 1018 10 16 0.00 0.00
10:17 am 10:17 Cloudy 77 25 70 21.1 79 79 Calm 30.06 1018 10 16 0.00 0.00
10:30 am 10:30 Cloudy 76 24.4 71 21.7 85 85 W 3 6 30.06 1018 10 16 0.00 0.00
10:42 am 10:42 Cloudy 77 25 71 21.7 82 82 Calm 30.06 1018 10 16 0.00 0.00
10:49 am 10:49 Cloudy 79 26 72 22 79 79 NNW 3 6 30.06 1018 10 16 0.00 0.00
10:53 am 10:53 Cloudy 79 26.1 71 21.7 77 77 NW 3 6 30.06 1018 10 16 0.00 0.00
11:00 am 11:00 Cloudy 78 25.6 71 21.7 79 79 WNW 5 7 30.06 1018 10 16 0.00 0.00
11:20 am 11:20 Cloudy 79 26.1 71 21.7 77 77 Calm 30.06 1018 10 16 0.00 0.00
11:38 am 11:38 Mostly Cloudy 80 26.7 70 21.1 71 71 WNW 3 6 30.06 1018 10 16 0.00 0.00
11:51 am 11:51 Mostly Cloudy 81 27 72 22 74 74 NNW 5 7 30.06 1018 10 16 0.00 0.00
11:53 am 11:53 Mostly Cloudy 81 27.2 71 21.7 72 72 N 5 7 30.07 1018 10 16 0.00 0.00
12:15 pm 12:15 Mostly Cloudy 81 27.2 71 21.7 72 72 VRB 3 6 30.06 1018 10 16 0.00 0.00
12:33 pm 12:33 Mostly Cloudy 82 27.8 70 21.1 67 67 Calm 30.06 1018 10 16 0.00 0.00
12:53 pm 12:53 Mostly Cloudy 82 27.8 71 21.7 69 69 W 3 6 30.06 1018 10 16 0.00 0.00
1:53 pm 13:53 Partly Cloudy 85 29.4 71 21.7 63 63 VRB 3 6 30.06 1018 10 16 0.00 0.00
2:53 pm 14:53 Sunny 87 30.6 70 21.1 57 57 WNW 7 11 30.04 1017 10 16 0.00 0.00
3:53 pm 15:53 Partly Cloudy 87 30.6 68 20 53 53 N 6 9 30.03 1017 10 16 0.00 0.00
4:53 pm 16:53 Mostly Cloudy 86 30 69 20.6 57 57 NNW 7 11 30.01 1016 10 16 0.00 0.00
5:53 pm 17:53 Sunny 86 30 70 21.1 59 59 NNW 8 13 30.00 1016 10 16 0.00 0.00
6:53 pm 18:53 Sunny 86 30 70 21.1 59 59 N 6 9 29.99 1016 10 16 0.00 0.00
7:53 pm 19:53 Sunny 85 29.4 70 21.1 61 61 N 5 7 29.99 1016 10 16 0.00 0.00
8:53 pm 20:53 Clear 77 25 71 21.7 82 82 Calm 30.00 1016 9 14 0.00 0.00
9:53 pm 21:53 Clear 76 24.4 71 21.7 85 85 N 3 6 30.01 1016 8 13 0.00 0.00
10:53 pm 22:53 Clear 75 23.9 70 21.1 84 84 Calm 30.02 1017 8 13 0.00 0.00
11:53 pm 23:53 Clear with Mist and Fog 73 22.8 70 21.1 90 90 NNW 3 6 30.03 1017 5 8 0.00 0.00

Powered by AerisWeather